Location: Canazei
(46.4667°N, 11.7667°E)
Time: 04:52:05
(UTC+00:00)

IRS-1D - Pass Details

Date: 21 April 2021
Orbit: 740 x 816 km, 98.6° (Epoch: 10 May)

Event Time Altitude Azimuth Distance (km) Brightness Sun altitude
Rises 01:51:36 0° 12° (NNE) 3,263 7.7 -21.5°
Reaches altitude 10° 01:53:54 10° 11° (NNE) 2,343 6.8 -21.3°
Maximum altitude 01:59:04 77° 287° (WNW) 817 3.5 -20.7°
Enters shadow 02:00:56 41° 210° (SSW) 1,140 3.9 -20.4°
